This is the latest recevied weather packets stored in our database for station/object KQ4TV-2. If no packets are shown the sender has not sent any weather packets the latest 1 day(s).
| Time | Temp. | Humidity | Pressure | Rain* | Wind** | Luminosity | Snow |
|---|---|---|---|---|---|---|---|
| 1778045726 | 21.11° C | 72% | - | 0 mm | - | - | - |
| 1778045576 | 21.11° C | 72% | - | 0 mm | - | - | - |
| 1778045036 | 21.11° C | 72% | - | 0 mm | - | - | - |
| 1778044956 | 21.11° C | 72% | - | 0 mm | - | - | - |
| 1778044560 | 21.11° C | 72% | - | 0 mm | - | - | - |
| 1778044267 | 21.11° C | 72% | - | 0 mm | - | - | - |
| 1778044102 | 21.11° C | 71% | - | 0 mm | - | - | - |
| 1778042876 | 21.11° C | 71% | - | 0 mm | - | - | - |
| 1778042679 | 21.11° C | 71% | - | 0 mm | - | - | - |
| 1778042264 | 21.67° C | 71% | - | 0 mm | - | - | - |
| 1778041230 | 21.67° C | 71% | - | 0 mm | - | - | - |
| 1778039994 | 21.11° C | 71% | - | 0 mm | - | - | - |
| 1778034882 | 20.56° C | 74% | - | 0 mm | - | - | - |
| 1778034465 | 20° C | 76% | - | 0 mm | - | - | - |
| 1778034258 | 20° C | 76% | - | 0 mm | - | - | - |
| 1778033937 | 20° C | 78% | - | 0 mm | - | - | - |
| 1778033732 | 19.44° C | 79% | - | 0 mm | - | - | - |
| 1778032662 | 18.89° C | 83% | - | 0 mm | - | - | - |
| 1778032358 | 18.33° C | 85% | - | 0 mm | - | - | - |
| 1778031957 | 18.33° C | 86% | - | 0 mm | - | - | - |
| 1778028135 | 20° C | 77% | - | 0 mm | - | - | - |
| 1778024401 | 21.11° C | 62% | - | 0 mm | - | - | - |
* Rain since midnight (hover to see other rain measurements)
** Current wind speed in m/s (hover to see current wind gust speed)